When you browse on this site, cookies collect data to enhance your experience and personalize the content and advertising you see.
Visit our Privacy Policy to learn more. By continuing to use the site, you agree to this use of cookies and data.

Tiempo cada hora Quito

Hoy, 13 Julio, Lunes

Tiempo Temperatura Precipitaciones Viento Presión Humedad
00:00 +13°C° 0 mm 1 mps 622 mmHg 41%
01:00 +12°C° 0 mm 1 mps 622 mmHg 46%
02:00 +11°C° 0 mm 1 mps 622 mmHg 47%
03:00 +11°C° 0 mm 1 mps 622 mmHg 47%
04:00 +9°C° 0 mm 2 mps 621 mmHg 48%
05:00 +10°C° 0 mm 2 mps 622 mmHg 47%
06:00 +10°C° 0 mm 2 mps 622 mmHg 46%
07:00 +10°C° 0 mm 2 mps 623 mmHg 45%
08:00 +15°C° 0 mm 2 mps 624 mmHg 38%
09:00 +19°C° 0 mm 3 mps 625 mmHg 31%
10:00 +24°C° 0 mm 3 mps 626 mmHg 23%
11:00 +26°C° 0 mm 3 mps 626 mmHg 20%
12:00 +27°C° 0 mm 3 mps 625 mmHg 17%
13:00 +29°C° 0 mm 3 mps 625 mmHg 14%
14:00 +28°C° 0 mm 2 mps 624 mmHg 14%
15:00 +28°C° 0 mm 2 mps 624 mmHg 14%
16:00 +28°C° 0 mm 2 mps 623 mmHg 14%
17:00 +25°C° 0 mm 2 mps 622 mmHg 17%
18:00 +20°C° 0 mm 2 mps 622 mmHg 20%
19:00 +18°C° 0 mm 1 mps 621 mmHg 24%
20:00 +16°C° 0 mm 1 mps 621 mmHg 24%
21:00 +16°C° 0 mm 1 mps 622 mmHg 24%
22:00 +15°C° 0 mm 1 mps 622 mmHg 24%
23:00 +14°C° 0 mm 1 mps 622 mmHg 26%

Mañana, 14 Julio, Martes

Tiempo Temperatura Precipitaciones Viento Presión Humedad
00:00 +13°C° 0 mm 1 mps 621 mmHg 29%
01:00 +13°C° 0 mm 1 mps 621 mmHg 31%
02:00 +12°C° 0 mm 1 mps 621 mmHg 33%
03:00 +11°C° 0 mm 1 mps 621 mmHg 35%
04:00 +11°C° 0 mm 1 mps 620 mmHg 37%
05:00 +11°C° 0 mm 1 mps 621 mmHg 37%
06:00 +11°C° 0 mm 1 mps 621 mmHg 37%
07:00 +11°C° 0 mm 1 mps 622 mmHg 36%
08:00 +15°C° 0 mm 2 mps 623 mmHg 30%
09:00 +19°C° 0 mm 3 mps 624 mmHg 24%
10:00 +23°C° 0 mm 4 mps 625 mmHg 18%
11:00 +25°C° 0 mm 4 mps 625 mmHg 16%
12:00 +27°C° 0 mm 3 mps 624 mmHg 13%
13:00 +28°C° 0 mm 3 mps 624 mmHg 11%
14:00 +28°C° 0 mm 3 mps 624 mmHg 11%
15:00 +28°C° 0 mm 3 mps 623 mmHg 11%
16:00 +28°C° 0 mm 2 mps 622 mmHg 10%
17:00 +24°C° 0 mm 2 mps 622 mmHg 14%
18:00 +21°C° 0 mm 1 mps 621 mmHg 18%
19:00 +16°C° 0 mm 1 mps 621 mmHg 21%
20:00 +15°C° 0 mm 1 mps 621 mmHg 23%
21:00 +15°C° 0 mm 2 mps 621 mmHg 24%
22:00 +14°C° 0 mm 2 mps 622 mmHg 25%
23:00 +13°C° 0 mm 2 mps 621 mmHg 27%

Pasado mañana, 15 Julio, Miércoles

Tiempo Temperatura Precipitaciones Viento Presión Humedad
00:00 +12°C° 0 mm 2 mps 621 mmHg 28%
01:00 +10°C° 0 mm 2 mps 621 mmHg 30%
02:00 +10°C° 0 mm 2 mps 621 mmHg 30%
03:00 +10°C° 0 mm 2 mps 621 mmHg 30%
04:00 +10°C° 0 mm 2 mps 621 mmHg 30%
05:00 +10°C° 0 mm 3 mps 622 mmHg 30%
06:00 +10°C° 0 mm 3 mps 622 mmHg 30%
07:00 +10°C° 0 mm 3 mps 623 mmHg 31%
08:00 +13°C° 0 mm 4 mps 624 mmHg 26%
09:00 +18°C° 0 mm 4 mps 625 mmHg 20%
10:00 +21°C° 0 mm 5 mps 626 mmHg 15%
11:00 +22°C° 0 mm 5 mps 626 mmHg 15%
12:00 +25°C° 0 mm 5 mps 625 mmHg 14%
13:00 +27°C° 0 mm 5 mps 625 mmHg 14%
14:00 +27°C° 0 mm 4 mps 625 mmHg 14%
15:00 +27°C° 0 mm 4 mps 624 mmHg 15%
16:00 +27°C° 0 mm 4 mps 624 mmHg 16%
17:00 +24°C° 0 mm 3 mps 623 mmHg 20%
18:00 +19°C° 0 mm 2 mps 623 mmHg 25%
19:00 +16°C° 0 mm 1 mps 622 mmHg 30%
20:00 +15°C° 0 mm 1 mps 623 mmHg 31%
21:00 +14°C° 0 mm 1 mps 623 mmHg 33%
22:00 +13°C° 0 mm 2 mps 623 mmHg 34%
23:00 +12°C° 0 mm 2 mps 623 mmHg 35%

16 Julio, Jueves

Tiempo Temperatura Precipitaciones Viento Presión Humedad
00:00 +10°C° 0 mm 2 mps 623 mmHg 35%
01:00 +10°C° 0 mm 2 mps 623 mmHg 36%
02:00 +9°C° 0 mm 2 mps 622 mmHg 35%
03:00 +9°C° 0 mm 2 mps 622 mmHg 35%
04:00 +9°C° 0 mm 2 mps 622 mmHg 35%
05:00 +9°C° 0 mm 2 mps 623 mmHg 34%
06:00 +9°C° 0 mm 2 mps 623 mmHg 32%
07:00 +9°C° 0 mm 2 mps 624 mmHg 31%
08:00 +12°C° 0 mm 3 mps 625 mmHg 28%
09:00 +15°C° 0 mm 4 mps 625 mmHg 25%
10:00 +19°C° 0 mm 5 mps 626 mmHg 22%
11:00 +21°C° 0 mm 5 mps 626 mmHg 21%
12:00 +23°C° 0 mm 5 mps 626 mmHg 19%
13:00 +26°C° 0 mm 4 mps 626 mmHg 18%
14:00 +26°C° 0 mm 4 mps 626 mmHg 18%
15:00 +26°C° 0 mm 4 mps 625 mmHg 18%
16:00 +26°C° 0 mm 3 mps 625 mmHg 18%
17:00 +22°C° 0 mm 3 mps 624 mmHg 23%
18:00 +19°C° 0 mm 2 mps 624 mmHg 28%
19:00 +16°C° 0 mm 2 mps 624 mmHg 33%
20:00 +15°C° 0 mm 2 mps 624 mmHg 35%
21:00 +14°C° 0 mm 2 mps 624 mmHg 37%
22:00 +13°C° 0 mm 2 mps 624 mmHg 39%
23:00 +12°C° 0 mm 2 mps 624 mmHg 41%

17 Julio, Viernes

Tiempo Temperatura Precipitaciones Viento Presión Humedad
00:00 +10°C° 0 mm 2 mps 623 mmHg 43%
01:00 +9°C° 0 mm 2 mps 623 mmHg 45%
02:00 +8°C° 0 mm 2 mps 623 mmHg 47%
03:00 +8°C° 0 mm 2 mps 623 mmHg 49%
04:00 +7°C° 0 mm 2 mps 622 mmHg 52%
05:00 +7°C° 0 mm 2 mps 623 mmHg 53%
06:00 +7°C° 0 mm 3 mps 623 mmHg 54%
07:00 +7°C° 0 mm 3 mps 624 mmHg 56%
08:00 +10°C° 0 mm 4 mps 624 mmHg 50%
09:00 +13°C° 0 mm 4 mps 625 mmHg 44%
10:00 +16°C° 0 mm 5 mps 626 mmHg 38%
11:00 +18°C° 0 mm 4 mps 626 mmHg 33%
12:00 +20°C° 0 mm 4 mps 625 mmHg 29%
13:00 +22°C° 0 mm 4 mps 625 mmHg 24%
14:00 +23°C° 0 mm 4 mps 625 mmHg 23%
15:00 +24°C° 0 mm 3 mps 624 mmHg 22%
16:00 +24°C° 0 mm 3 mps 624 mmHg 21%
17:00 +20°C° 0 mm 3 mps 623 mmHg 25%
18:00 +17°C° 0 mm 2 mps 623 mmHg 30%
19:00 +14°C° 0 mm 2 mps 623 mmHg 34%
20:00 +13°C° 0 mm 2 mps 623 mmHg 36%
21:00 +10°C° 0 mm 2 mps 623 mmHg 39%
22:00 +9°C° 0 mm 2 mps 623 mmHg 41%
23:00 +9°C° 0 mm 2 mps 622 mmHg 44%

18 Julio, Sábado

Tiempo Temperatura Precipitaciones Viento Presión Humedad
00:00 +8°C° 0 mm 2 mps 622 mmHg 48%
01:00 +7°C° 0 mm 2 mps 622 mmHg 52%
02:00 +6°C° 0 mm 2 mps 622 mmHg 55%
03:00 +5°C° 0 mm 2 mps 621 mmHg 58%
04:00 +4°C° 0 mm 2 mps 621 mmHg 61%
05:00 +5°C° 0 mm 2 mps 622 mmHg 60%
06:00 +5°C° 0 mm 2 mps 622 mmHg 59%
07:00 +5°C° 0 mm 2 mps 623 mmHg 58%
08:00 +8°C° 0 mm 3 mps 624 mmHg 51%
09:00 +11°C° 0 mm 4 mps 624 mmHg 43%
10:00 +14°C° 0 mm 5 mps 625 mmHg 35%
11:00 +18°C° 0 mm 4 mps 625 mmHg 30%
12:00 +20°C° 0 mm 4 mps 625 mmHg 25%
13:00 +22°C° 0 mm 4 mps 625 mmHg 20%
14:00 +22°C° 0 mm 3 mps 624 mmHg 19%
15:00 +22°C° 0 mm 3 mps 624 mmHg 18%
16:00 +22°C° 0 mm 3 mps 623 mmHg 17%
17:00 +19°C° 0 mm 2 mps 622 mmHg 23%
18:00 +15°C° 0 mm 2 mps 622 mmHg 30%
19:00 +12°C° 0 mm 1 mps 621 mmHg 36%
20:00 +11°C° 0 mm 1 mps 621 mmHg 40%
21:00 +10°C° 0 mm 1 mps 622 mmHg 44%
22:00 +9°C° 0 mm 1 mps 622 mmHg 48%
23:00 +8°C° 0 mm 2 mps 622 mmHg 53%
Mostrar más